This is the latest recevied weather packets stored in our database for station/object AA0PB. If no packets are shown the sender has not sent any weather packets the latest 10 day(s).
| Time | Temp. | Humidity | Pressure | Rain* | Wind** | Luminosity | Snow |
|---|---|---|---|---|---|---|---|
| 1777471222 | 6.11° C | 93% | 1025.6 hPa | 0 mm | - | 43 W/m² | - |
| 1777470920 | 5.56° C | 94% | 1025.6 hPa | 0 mm | - | 40 W/m² | - |
| 1777470617 | 5.56° C | 95% | 1025.4 hPa | 0 mm | - | 39 W/m² | - |
| 1777470312 | 5° C | 97% | 1025.5 hPa | 0 mm | - | 31 W/m² | - |
| 1777470009 | 4.44° C | 97% | 1025.5 hPa | 0 mm | - | 27 W/m² | - |
| 1777469704 | 4.44° C | 97% | 1025.3 hPa | 0 mm | - | 19 W/m² | - |
| 1777469401 | 4.44° C | 97% | 1025.4 hPa | 0 mm | - | 15 W/m² | - |
| 1777469101 | 3.89° C | 97% | 1025.3 hPa | 0 mm | - | 12 W/m² | - |
| 1777468795 | 3.89° C | 97% | 1025.2 hPa | 0 mm | - | 9 W/m² | - |
| 1777468492 | 3.89° C | 97% | 1025.3 hPa | 0 mm | - | 6 W/m² | - |
| 1777468189 | 3.89° C | 97% | 1025.4 hPa | 0 mm | - | 4 W/m² | - |
| 1777467885 | 3.89° C | 96% | 1025.1 hPa | 0 mm | - | 3 W/m² | - |
| 1777467580 | 3.89° C | 96% | 1025.1 hPa | 0 mm | - | 2 W/m² | - |
| 1777467276 | 3.89° C | 96% | 1025.3 hPa | 0 mm | - | 1 W/m² | - |
| 1777466972 | 4.44° C | 96% | 1025.2 hPa | 0 mm | - | 0 W/m² | - |
| 1777466670 | 4.44° C | 97% | 1025.2 hPa | 0 mm | - | 0 W/m² | - |
| 1777466367 | 3.89° C | 96% | 1025.1 hPa | 0 mm | - | 0 W/m² | - |
| 1777466063 | 4.44° C | 95% | 1025.2 hPa | 0 mm | - | 0 W/m² | - |
| 1777465760 | 4.44° C | 95% | 1025 hPa | 0 mm | - | 0 W/m² | - |
| 1777465456 | 4.44° C | 94% | 1024.8 hPa | 0 mm | - | 0 W/m² | - |
| 1777465154 | 5° C | 94% | 1025.1 hPa | 0 mm | - | 0 W/m² | - |
| 1777464850 | 5° C | 94% | 1024.8 hPa | 0 mm | - | 0 W/m² | - |
| 1777464545 | 5° C | 94% | 1024.8 hPa | 0 mm | - | 0 W/m² | - |
| 1777464242 | 5° C | 94% | 1025 hPa | 0 mm | - | 0 W/m² | - |
| 1777463936 | 5° C | 93% | 1025 hPa | 0 mm | - | 0 W/m² | - |
* Rain latest hour (hover to see other rain measurements)
** Current wind speed in m/s (hover to see current wind gust speed)